Providence, RI

2:03 PM EST on December 16, 2017 (GMT -0500)
Green State

Weather History for KPVD - February, 2013

Change the Weather History Date:

Wednesday, February 27, 2013

  Actual Average Record
Temperature  
Mean Temperature 40 °F 34 °F  
Max Temperature 44 °F 43 °F 64 °F (1976)
Min Temperature 36 °F 26 °F 2 °F (1950)
Degree Days  
Heating Degree Days 25 31  
Month to date heating degree days 921 895  
Since 1 July heating degree days 3796 4032  
Cooling Degree Days 0 0  
Month to date cooling degree days 0 0  
Year to date cooling degree days 0 0  
Moisture  
Dew Point 39 °F    
Average Humidity 88    
Maximum Humidity 100    
Minimum Humidity 76    
Precipitation  
Precipitation 1.39 in 0.13 in 1.39 in (2013)
Month to date precipitation 5.03 3.15  
Year to date precipitation 6.96 7.01  
Snow  
Snow 0.00 in 0.20 in 4.80 in (1952)
Month to date snowfall 24.3 8.2  
Since 1 July snowfall 41.4 27.4  
Snow Depth 0.00 in    
Sea Level Pressure  
Sea Level Pressure 29.75 in    
Wind  
Wind Speed 11 mph (ENE)    
Max Wind Speed 23 mph    
Max Gust Speed 35 mph    
Visibility 4 miles    
Events Rain    
T = Trace of Precipitation, MM = Missing Value Source: NWS Daily Summary

Daily Weather History Graph

Daily Weather History Graph

Search for Another Location

Airport or City:

Trip Planner

Search our weather history database for the weather conditions in past years. The results will help you decide how hot, cold, wet, or windy it might be!

Date:

Astronomy

Feb. 27, 2013 Rise Set
Actual Time 6:23 AM EST 5:34 PM EST
Civil Twilight 5:55 AM EST 6:02 PM EST
Nautical Twilight 5:23 AM EST 6:34 PM EST
Astronomical Twilight 4:51 AM EST 7:06 PM EST
Moon 7:54 PM EST (2/27) 6:54 AM EST (2/27)
Length of Visible Light 12h 06m
Length of Day
11h 10m
Waning Gibbous, 96% of the Moon is Illuminated
Feb 27
Waning Gibbous
Mar 4
Last Quarter
Mar 11
New
Mar 19
First Quarter
Mar 27
Full

Hourly Weather History & Observations

Time (EST) Temp. Windchill Dew Point Humidity Pressure Visibility Wind Dir Wind Speed Gust Speed Precip Events Conditions
12:51 AM 37.0 °F 30.4 °F 32.0 °F 82% 30.10 in 10.0 mi ENE 9.2 mph - 0.00 in Rain Light Rain
1:11 AM 37.4 °F 29.8 °F 33.8 °F 87% 30.06 in 10.0 mi NE 11.5 mph 36.8 mph 0.00 in Rain Light Rain
1:51 AM 37.0 °F 29.3 °F 34.0 °F 89% 30.05 in 10.0 mi NE 11.5 mph - 0.02 in Rain Light Rain
2:08 AM 37.4 °F 30.3 °F 33.8 °F 87% 30.04 in 10.0 mi NE 10.4 mph - 0.00 in Rain Light Rain
2:51 AM 37.0 °F 29.3 °F 35.1 °F 93% 30.02 in 5.0 mi NE 11.5 mph - 0.04 in Rain Rain
3:31 AM 37.4 °F 30.8 °F 35.6 °F 93% 30.00 in 5.0 mi NE 9.2 mph - 0.09 in Rain Heavy Rain
3:51 AM 37.9 °F 29.6 °F 36.0 °F 93% 29.99 in 6.0 mi NE 13.8 mph - 0.15 in Rain Rain
4:51 AM 39.0 °F 31.4 °F 37.0 °F 93% 29.95 in 10.0 mi NE 12.7 mph - 0.05 in Rain Light Rain
5:51 AM 39.9 °F 32.9 °F 39.0 °F 97% 29.92 in 5.0 mi ENE 11.5 mph - 0.05 in Rain Rain
6:51 AM 43.0 °F 36.8 °F 41.0 °F 93% 29.87 in 5.0 mi ENE 11.5 mph - 0.10 in Rain Light Rain
7:51 AM 44.1 °F 36.5 °F 42.1 °F 93% 29.87 in 4.0 mi East 17.3 mph 25.3 mph 0.09 in Rain Rain
8:51 AM 44.1 °F 35.9 °F 42.1 °F 93% 29.85 in 5.0 mi East 19.6 mph 26.5 mph 0.12 in Rain Light Rain
9:25 AM 44.6 °F 37.2 °F 41.0 °F 87% 29.81 in 5.0 mi East 17.3 mph 25.3 mph 0.05 in Rain Rain
9:51 AM 44.1 °F 37.1 °F 41.0 °F 89% 29.80 in 5.0 mi East 15.0 mph - 0.07 in Rain Rain
9:59 AM 44.6 °F 38.1 °F 41.0 °F 87% 29.80 in 4.0 mi East 13.8 mph - 0.01 in Rain Light Rain
10:27 AM 44.6 °F 36.4 °F 41.0 °F 87% 29.78 in 5.0 mi East 20.7 mph 31.1 mph 0.04 in Rain Light Rain
10:51 AM 43.0 °F 34.8 °F 41.0 °F 93% 29.78 in 4.0 mi East 18.4 mph 25.3 mph 0.07 in Rain Light Rain
11:51 AM 43.0 °F 35.7 °F 41.0 °F 93% 29.73 in 2.5 mi East 15.0 mph 29.9 mph 0.08 in Rain Rain
11:59 AM 42.8 °F 35.4 °F 41.0 °F 93% 29.72 in 4.0 mi East 15.0 mph 25.3 mph 0.03 in Rain Light Rain
12:08 PM 42.8 °F 35.8 °F 41.0 °F 93% 29.72 in 5.0 mi East 13.8 mph 25.3 mph 0.03 in Rain Light Rain
12:29 PM 42.8 °F 35.4 °F 39.2 °F 87% 29.71 in 3.0 mi East 15.0 mph 24.2 mph 0.04 in Rain Light Rain
12:51 PM 43.0 °F 34.0 °F 39.9 °F 89% 29.70 in 3.0 mi East 21.9 mph 34.5 mph 0.05 in Rain Light Rain
1:34 PM 42.8 °F 34.8 °F 39.2 °F 87% 29.66 in 3.0 mi East 17.3 mph 31.1 mph 0.00 in Rain Light Rain
1:51 PM 43.0 °F 36.0 °F 39.9 °F 89% 29.67 in 3.0 mi East 13.8 mph 31.1 mph 0.00 in Rain Light Rain
2:03 PM 42.8 °F 33.8 °F 39.2 °F 87% 29.66 in 1.8 mi ENE 21.9 mph 31.1 mph 0.01 in Rain Heavy Rain
2:17 PM 42.8 °F 36.2 °F 41.0 °F 93% 29.66 in 2.0 mi East 12.7 mph 21.9 mph 0.09 in Rain Rain
2:37 PM 42.8 °F 35.8 °F 41.0 °F 93% 29.67 in 3.0 mi East 13.8 mph 18.4 mph 0.19 in Rain Rain
2:51 PM 43.0 °F 40.3 °F 41.0 °F 93% 29.68 in 3.0 mi ENE 4.6 mph - 0.21 in Rain Rain
3:26 PM 44.6 °F 39.2 °F 41.0 °F 87% 29.65 in 1.0 mi East 10.4 mph - 0.03 in Rain Rain
3:51 PM 44.1 °F 37.7 °F 42.1 °F 93% 29.63 in 1.0 mi ENE 12.7 mph 21.9 mph 0.11 in Rain Rain
4:08 PM 44.6 °F 39.2 °F 42.8 °F 93% 29.62 in 3.0 mi East 10.4 mph 21.9 mph 0.01 in Rain Light Rain
4:30 PM 44.6 °F 39.2 °F 42.8 °F 93% 29.62 in 2.0 mi East 10.4 mph - 0.04 in Rain Rain
4:37 PM 44.6 °F 39.2 °F 42.8 °F 93% 29.62 in 1.5 mi East 10.4 mph - 0.06 in Rain Rain
4:51 PM 44.1 °F 41.5 °F 42.1 °F 93% 29.62 in 1.8 mi East 4.6 mph - 0.10 in Rain Rain
5:30 PM 42.8 °F 37.0 °F 41.0 °F 93% 29.61 in 3.0 mi NNE 10.4 mph - 0.04 in Rain Light Rain
5:51 PM 42.1 °F 36.6 °F 41.0 °F 96% 29.60 in 3.0 mi NNE 9.2 mph - 0.04 in Rain Light Rain
6:46 PM 42.8 °F 38.6 °F 41.0 °F 93% 29.60 in 2.5 mi North 6.9 mph - 0.02 in Rain Light Rain
6:51 PM 42.1 °F 37.7 °F 41.0 °F 96% 29.60 in 2.5 mi North 6.9 mph - 0.02 in Rain Light Rain
7:51 PM 42.1 °F 36.1 °F 41.0 °F 96% 29.58 in 2.5 mi North 10.4 mph - 0.02 in   Light Drizzle
8:51 PM 42.1 °F 38.4 °F 41.0 °F 96% 29.58 in 2.5 mi North 5.8 mph - 0.00 in   Light Drizzle
9:51 PM 41.0 °F 38.0 °F 39.9 °F 96% 29.58 in 2.5 mi NW 4.6 mph - 0.00 in   Light Drizzle
10:51 PM 39.9 °F 35.8 °F 39.0 °F 97% 29.58 in 2.5 mi NW 5.8 mph - 0.00 in   Light Drizzle
11:32 PM 39.2 °F 35.9 °F 37.4 °F 93% 29.59 in 3.0 mi NW 4.6 mph 66.7 mph 0.00 in   Overcast
11:51 PM 39.9 °F - 37.9 °F 93% 29.58 in 6.0 mi Calm Calm - 0.00 in   Overcast